006  
ASUS43 KFGF 200231  
RWRFGF  
PRAIRIE TO PINES WEATHER ROUNDUP  
NATIONAL WEATHER SERVICE EASTERN NORTH DAKOTA/GRAND FORKS ND  
900 PM CDT FRI OCT 19 2018  
 
**SATELLITE DATA USED TO AUGMENT SKY COVER AT AUTOMATED STATIONS**  
***** WEATHER ACROSS EASTERN NORTH DAKOTA *****  
 
CITY SKY/WX TMP DP RH WIND PRES REMARKS
 
GRAND FORKS MOCLDY 44 34 67 N23G37 29.95R  
GRAND FRKS AFB MOCLDY 48 30 49 N24G39 29.95S  
DEVILS LAKE CLOUDY 46 28 49 W15 30.00F  
FARGO FAIR 45 31 58 W12 29.96F  
WAHPETON ARPT FAIR 43 30 61 W12 30.00S  

 
 
***** WEATHER ACROSS CENTRAL AND WESTERN NORTH DAKOTA *****  
 
CITY SKY/WX TMP DP RH WIND PRES REMARKS
 
BISMARCK FAIR 50 28 42 NW13 30.16R  
MINOT FAIR 48 27 44 W15 30.10S  
JAMESTOWN FAIR 48 30 49 NW15G25 30.04S  
MINOT AFB FAIR 46 27 48 W17 30.09S  
GARRISON N/A 42 27 55 NW12 30.14S  
WILLISTON FAIR 44 26 49 NW9 30.23R  
DICKINSON FAIR 38 24 57 NW10 30.21R  
HETTINGER FAIR 37 23 56 NW9 30.23S  

 
 
***** OTHER AIRPORT OBSERVATIONS IN OUR AREA *****  
 
CITY SKY/WX TMP DP RH WIND PRES REMARKS
 
WALHALLA LGT RAIN 36 37 100 NW13 30.01R  
GRAFTON AIRPOR CLOUDY 41 37 87 N25 30.00R  
VALLEY CITY AR FAIR 46 30 53 W15 30.02F  
CANDO MOCLDY 43 N/A N/A NW25G36 30.06R  
CAVALIER APRT LGT RAIN 36 34 93 NW14G20 30.00R  
GWINNER N/A 48 30 49 CALM 30.04R  
SHEYENNE NWR N/A 48 30 50 NW8 29.95S  
ROLLA LGT RAIN 39 36 87 NW23G30 30.06R  
***** THE ABOVE OBSERVATIONS ARE NON NWS ARE NOT QUALITY  
CONTROLLED AND MAY MIS-REPORT RAIN FOR SNOW...  

 
 
***** WEATHER ACROSS NORTHERN MINNESOTA *****  
 
CITY SKY/WX TMP DP RH WIND PRES REMARKS
 
FLAG ISLAND CLOUDY 37 34 87 NW18 29.83F  
WARROAD LGT RAIN 37 34 87 NW9G20 29.87S  
ROSEAU MOCLDY 37 34 87 NW12 29.89R  
HALLOCK CLOUDY 39 37 93 NW17G26 29.95R  
THF RVR FALLS MOCLDY 39 36 87 N25G44 29.91R  
BAUDETTE LGT RAIN 42 33 70 NW21G33 29.83R  
WASKISH CLOUDY 39 37 93 W12G18 29.84F  
CROOKSTON FAIR 46 32 57 NW21G26 29.92S  
STEPHEN NDAWN N/A 39 37 93 N12 N/A  
GREENBUSH NDAW N/A 39 36 87 NW17 N/A  

 
***** WEATHER ACROSS CENTRAL AND WEST MINNESOTA *****  
 
CITY SKY/WX TMP DP RH WIND PRES REMARKS
 
FOSSTON FAIR 43 30 61 W14 29.88F  
BEMIDJI LGT RAIN 40 36 85 NW8 29.85F  
PARK RAPIDS FAIR 33 30 88 W7 29.89F  
ELBOW LAKE FAIR 42 32 67 NW7 29.99S  
WADENA FAIR 41 34 75 W6 29.92S  
DETROIT LAKES FAIR 45 32 61 W12G17 29.94S  
MOORHEAD FAIR 48 28 46 W10 29.97S  
FERGUS FALLS FAIR 45 30 57 NW10 29.99S  
MORRIS MN FAIR 45 32 61 W9 29.99R  
STAPLES FAIR 37 32 81 W7 29.91F  

 
***** WEATHER ELSEWHERE ACROSS MINNESOTA *****  
 
CITY SKY/WX TMP DP RH WIND PRES REMARKS
 
DULUTH FAIR 46 30 53 NW16G25 29.80S  
INTRNTL FALLS FAIR 39 31 72 W9 29.79F  
ELY FAIR 39 27 60 W9 29.75F  
CLOQUET FAIR 46 30 53 NW7 29.83S  
WHEATON FAIR 46 30 53 W12 30.03S  
BRAINERD FAIR 47 32 56 NW9 29.91S  
HIBBING FAIR 41 30 65 W7 29.81F  
ALEXANDRIA FAIR 50 33 52 W13 29.97S  
SAINT CLOUD FAIR 49 34 56 W10 29.92S  
MINNEAPOLIS FAIR 53 33 46 NW13 29.90R  

 
 
***** WEATHER ACROSS SOUTH DAKOTA *****  
 
CITY SKY/WX TMP DP RH WIND PRES REMARKS
 
SIOUX FALLS FAIR 49 32 52 NW7 30.08S  
BROOKINGS FAIR 45 32 60 NW9 30.08R  
WATERTOWN FAIR 48 32 53 NW12 30.06R  
HURON FAIR 41 29 62 W7 30.12R  
SISSETON N/A 50 30 46 NW16 30.02S  
ABERDEEN FAIR 48 31 51 NW12 30.11R  
MITCHELL FAIR 47 30 51 NW8 30.13R  
PIERRE FAIR 49 31 49 NW12 30.18R  
MOBRIDGE FAIR 49 30 48 NW9 30.14S  
RAPID CITY FAIR 46 28 49 N10 30.28R  

 
 
***** SOME WEATHER IN NEARBY STATES *****  
 
CITY SKY/WX TMP DP RH WIND PRES REMARKS
 
GLASGOW MT FAIR 47 25 42 N8 30.29R  
GREAT FALLS MT FAIR 49 34 56 E8 30.30S  
CHEYENNE WY FAIR 47 26 44 N6 30.39R  
SCOTTSBLUFF NE FAIR 53 29 39 W3 30.32R  
OMAHA NE FAIR 54 35 48 NW8 30.10R  
DES MOINES IA FAIR 53 38 56 NW9 30.02R  
DAVENPORT IA FAIR 55 49 80 W12 29.93R  
CHICAGO IL MOCLDY 54 49 83 SW12G21 29.82S  
EAU CLAIRE WI FAIR 52 31 44 NW12 29.82R  
LA CROSSE WI FAIR 56 33 42 NW13 29.84R  

 
 
***** SOME NATIONAL WEATHER *****  
 
CITY SKY/WX TMP DP RH WIND PRES REMARKS
 
LA GUARDIA NY MOCLDY 58 42 55 SW12 29.98F  
RALEIGH NC FAIR 56 51 84 CALM 30.11F  
ATLANTA GA MOCLDY 61 55 81 SE3 30.16F  
NEW ORLEANS LA FAIR 80 76 87 SE6 30.11R  
OKLAHOMA CITY MOCLDY 54 54 100 S5 30.14R  
ALBUQUERQUE NM FAIR 60 35 39 E12 30.31R  
SALT LAKE CITY FAIR 54 35 48 CALM 30.36S  
LOS ANGELES CA FAIR 74 52 46 W9 29.94R  
BOISE ID FAIR 57 38 48 S3 30.31R  
SEATTLE WA FAIR 53 47 79 NW3 30.25R  

 
 
*** WEATHER ACROSS MANITOBA...SASKATCHEWAN AND ONTARIO ***  
***ONTARIO***  
 
CITY SKY/WX TMP DP RH WIND PRES REMARKS
 
GERALDTON FLURRIES 34 30 86 NW15G21 29.50R WCI 24  
THUNDER BAY MOCLDY 41 32 70 W14 29.63F  
SIOUX LOOKOUT FLURRIES 36 28 75 NW14G28 29.69F  
TORONTO LGT RAIN 52 34 50 SW18G32 29.66F  
BIG TROUT LK LGT SNOW 21 18 86 NW13G25 29.67R WCI 9  
PICKLE LAKE FLURRIES 30 21 69 NW7 29.62R WCI 23  
DRYDEN CLOUDY 36 25 64 NW8G18 29.72F  
KENORA MOCLDY 36 21 55 NW15G26 29.80R  

 
*** MANITOBA***  
 
CITY SKY/WX TMP DP RH WIND PRES REMARKS
 
BRANDON PTCLDY 36 27 69 NW15G24 30.06R  
DAUPHIN NOT AVBL  
ISLAND LAKE FLURRIES 25 19 80 NW14G33 29.85R WCI 13  
PILOT MOUND N/A 36 34 93 N13G18 N/A  
THE PAS CLOUDY 32 16 51 N25G49 30.14R WCI 19  
THOMPSON FLURRIES 23 14 68 NW15G29 29.98R WCI 10  
WINNIPEG PTCLDY 34 28 80 NW16G24 29.96R WCI 23  
LYNN LAKE CLEAR 19 14 79 NW14G21 30.17R WCI 6  
CHURCHILL LGT SNOW 30 28 93 N36G45 29.80R BLWGSNOWWCI 14  
GILLAM LGT SNOW 23 18 80 NW18G26 29.83R DRFTSNOWWCI 9  

 
***SASKATCHEWAN***  
 
CITY SKY/WX TMP DP RH WIND PRES REMARKS
 
ESTEVAN CLEAR 43 27 52 NW13G21 30.15R  
KINDERSLEY PTCLDY 37 27 65 NW6G20 30.29R  
LLOYDMINSTER PTCLDY 34 30 86 E5 30.28F  
PRINCE ALBERT PTCLDY 28 14 54 NW5 30.32R WCI 23  
REGINA PTCLDY 43 30 61 N17G26 30.22R  
YORKTON PTCLDY 32 19 59 N13 30.17R WCI 22  
N. BATTLEFORD CLEAR 36 27 69 NE14 30.31S  
LA RONGE PTCLDY 27 16 63 NW6 30.30S WCI 20  
SASKATOON PTCLDY 36 18 48 N12G17 30.31S  
SWIFT CURRENT CLEAR 41 21 45 NW9 30.28R  

 
NOTE: THESE ARE AUTOMATED STATIONS WITH LIMITED QUALITY CONTROL  
"FAIR" INDICATES FEW OR NO CLOUDS BELOW 12,000 FEET WITH NO  
SIGNIFICANT WEATHER AND/OR S TO VISIBILITY
.  
SKY/WX - SKY CONDITION AND SIGNIFICANT WEATHER.  
TMP - AIR TEMPERATURE. DP - DEWPOINT TEMPERATURE.  
RH - RELATIVE HUMIDITY. PRES - PRESSURE.  
HX - HEAT INDEX. WCI - WIND CHILL INDEX.  
$  
 
 
CLICK HERE TO GO TO PREVIOUS BULLETINS.

The Nexlab ND Page
The Nexlab MN Page Main Text Page